Regional Weather Roundup
Issued by NWS

Home | Current Version | Previous Version | Text Only | Print | Product List | Glossary On
Versions: 1 2 3 4 5 6 7 8 9 10 11 12 13 14 15 16 17 18 19 20 21 22 23 24 25 26 27 28 29 30 31 32 33 34 35 36 37 38 39 40 41 42 43 44 45 46 47 48 49 50
000
ASUS45 KREV 260110
RWRNV
NEVADA REGIONAL WEATHER ROUNDUP
NATIONAL WEATHER SERVICE RENO NV
600 PM PDT FRI JUL 25 2014

NOTE: "FAIR" INDICATES FEW OR NO CLOUDS BELOW 12,000 FEET WITH NO
SIGNIFICANT WEATHER AND/OR OBSTRUCTIONS TO VISIBILITY.

NVZ001-003-004-260200-
WESTERN NEVADA

CITY           SKY/WX    TMP DP  RH WIND       PRES   REMARKS
RENO           MOSUNNY   91  29  11 W17G26    29.99S
CARSON CITY    FAIR      86  36  16 W12G23    30.03S
SLIDE MTN        N/A     64  39  39 W17         N/A
PYRAMID LAKE     N/A     84 N/A N/A N7          N/A
FALLON         MOSUNNY   96  25   8 NE8       29.94F
LOVELOCK       SUNNY     94  21   7 NW10      29.94F
HAWTHORNE      SUNNY     95  23   7 W14       29.94S
$$

NVZ002-CAZ072-073-260200-
NORTHERN AND CENTRAL SIERRA

CITY           SKY/WX    TMP DP  RH WIND       PRES   REMARKS
S. LAKE TAHOE  SUNNY     79  33  19 S7        30.17S
TRUCKEE        MOSUNNY   81  34  18 W9        30.16S
SQUAW VLY 8000 NOT AVBL
SUSANVILLE     SUNNY     90  28  11 S10G18    29.99
BLUE CANYON    SUNNY     78  33  19 SW7       30.15S
MAMMOTH LAKES  FAIR      79  18  10 W6G18     30.23R
BRIDGEPORT     FAIR      79  35  20 SW10      30.18S
$$

NVZ030-031-036-260200-
NORTHERN NEVADA

CITY           SKY/WX    TMP DP  RH WIND       PRES   REMARKS
ELKO           PTSUNNY   91  15   6 W12       30.00F
WINNEMUCCA     SUNNY     91  21   8 W12       29.98F
WENDOVER       SUNNY     91  32  12 E9        29.93F
$$

NVZ035-037-260200-
CENTRAL NEVADA

CITY           SKY/WX    TMP DP  RH WIND       PRES   REMARKS
ELY            SUNNY     91  14   6 SW13G28   30.07F
EUREKA           N/A     90  17   7 W15G22    30.04R
$$

NVZ013-014-260200-
SOUTH CENTRAL NEVADA

CITY           SKY/WX    TMP DP  RH WIND       PRES   REMARKS
TONOPAH        SUNNY     95  14   5 W14       30.01F
$$

NVZ017-020-022-260200-
SOUTHERN NEVADA

CITY           SKY/WX    TMP DP  RH WIND       PRES   REMARKS
LAS VEGAS      PTSUNNY  103  47  15 S12       29.78F
N. LAS VEGAS   MOSUNNY  102  45  14 SW5       29.81F
NELLIS AFB     MOSUNNY  103  49  16 SW13      29.79F
HENDERSON      MOSUNNY  103  49  16 W10       29.85F
MERCURY        PTSUNNY   97  40  14 S18G28    29.89F
$$


USA.gov is the U.S. government's official web portal to all federal, state and local government web resources and services.